This is the latest recevied weather packets stored in our database for station/object N7ZAP. If no packets are shown the sender has not sent any weather packets the latest 10 day(s).
| Time | Temp. | Humidity | Pressure | Rain* | Wind** | Luminosity | Snow |
|---|---|---|---|---|---|---|---|
| 1788389344 | 35.56° C | 18% | 1018.4 hPa | 0 mm | - | - | - |
| 1788389043 | 35.56° C | 18% | 1018.5 hPa | 0 mm | - | - | - |
| 1788388741 | 35.56° C | 18% | 1018.5 hPa | 0 mm | - | - | - |
| 1788388441 | 35.56° C | 18% | 1018.7 hPa | 0 mm | - | - | - |
| 1788388135 | 35° C | 19% | 1018.5 hPa | 0 mm | - | - | - |
| 1788387834 | 35° C | 19% | 1018.4 hPa | 0 mm | - | - | - |
| 1788387533 | 35.56° C | 20% | 1018.7 hPa | 0 mm | - | - | - |
| 1788387233 | 35.56° C | 18% | 1018.8 hPa | 0 mm | - | - | - |
| 1788386928 | 35.56° C | 19% | 1018.9 hPa | 0 mm | - | - | - |
| 1788386628 | 35.56° C | 20% | 1018.8 hPa | 0 mm | - | - | - |
| 1788386323 | 35.56° C | 20% | 1018.9 hPa | 0 mm | - | - | - |
| 1788386018 | 35° C | 21% | 1018.8 hPa | 0 mm | - | - | - |
| 1788385714 | 35° C | 21% | 1018.9 hPa | 0 mm | - | - | - |
| 1788385413 | 35° C | 21% | 1019.2 hPa | 0 mm | - | - | - |
| 1788385108 | 35° C | 22% | 1019 hPa | 0 mm | - | - | - |
| 1788384804 | 33.89° C | 23% | 1019.6 hPa | 0 mm | - | - | - |
| 1788384502 | 33.89° C | 23% | 1019.5 hPa | 0 mm | - | - | - |
| 1788384204 | 33.89° C | 22% | 1019.4 hPa | 0 mm | - | - | - |
| 1788383895 | 33.89° C | 23% | 1019.4 hPa | 0 mm | - | - | - |
| 1788383591 | 33.33° C | 23% | 1019.6 hPa | 0 mm | - | - | - |
| 1788383286 | 32.78° C | 24% | 1019.8 hPa | 0 mm | - | - | - |
| 1788382980 | 32.22° C | 25% | 1020.1 hPa | 0 mm | - | - | - |
| 1788382678 | 32.78° C | 25% | 1019.9 hPa | 0 mm | - | - | - |
| 1788382374 | 32.78° C | 23% | 1019.9 hPa | 0 mm | - | - | - |
| 1788382069 | 33.33° C | 26% | 1020.3 hPa | 0 mm | - | - | - |
* Rain latest hour (hover to see other rain measurements)
** Current wind speed in m/s (hover to see current wind gust speed)